Kars, Turkey

2:21 PM +03 on September 21, 2017 (GMT +0300)
Kars

Weather History for LTCF - May, 2013

Change the Weather History Date:

Thursday, May 23, 2013

  Actual Average Record
Temperature  
Mean Temperature 56 °F -  
Max Temperature 72 °F 67 °F - ()
Min Temperature 41 °F 43 °F - ()
Degree Days  
Heating Degree Days 8    
Growing Degree Days 6 (Base 50)    
Moisture  
Dew Point 41 °F    
Average Humidity 57    
Maximum Humidity 100    
Minimum Humidity 16    
Precipitation  
Precipitation 0.00 in 0.10 in - ()
Sea Level Pressure  
Sea Level Pressure 30.18 in    
Wind  
Wind Speed 3 mph ()    
Max Wind Speed 10 mph    
Max Gust Speed 18 mph    
Visibility 6.1 miles    
Events      
T = Trace of Precipitation, MM = Missing Value Source: Averaged Metar Reports

Daily Weather History Graph

Daily Weather History Graph

Search for Another Location

Airport or City:

Trip Planner

Search our weather history database for the weather conditions in past years. The results will help you decide how hot, cold, wet, or windy it might be!

Date:

Astronomy

May. 23, 2013 Rise Set
Actual Time 4:44 AM EEST 7:24 PM EEST
Civil Twilight 4:12 AM EEST 7:56 PM EEST
Nautical Twilight 3:32 AM EEST 8:36 PM EEST
Astronomical Twilight 2:47 AM EEST 9:21 PM EEST
Moon 5:30 PM EEST (5/23) 3:13 AM EEST (5/23)
Length of Visible Light 15h 44m
Length of Day
14h 40m
Waxing Gibbous, 95% of the Moon is Illuminated
May 23
Waxing Gibbous
May 25
Full
May 31
Last Quarter
Jun 8
New
Jun 16
First Quarter

Hourly Weather History & Observations

Time (EEST) Temp. Windchill Dew Point Humidity Pressure Visibility Wind Dir Wind Speed Gust Speed Precip Events Conditions
12:50 AM 46.4 °F 44.3 °F 39.2 °F 76% 30.15 in 6.2 mi ENE 4.6 mph - N/A   Scattered Clouds
1:50 AM 46.4 °F - 39.2 °F 76% 30.15 in 6.2 mi Calm Calm - N/A   Partly Cloudy
3:00 AM 43 °F - 38 °F 76%  in 6 mi SW 5.8 mph - -   Scattered Clouds
3:50 AM 44.6 °F - 39.2 °F 81% 30.15 in 6.2 mi Variable 1.2 mph 18.4 mph N/A   Partly Cloudy
4:50 AM 41.0 °F - 41.0 °F 100% 30.15 in 6.2 mi Calm Calm - N/A   Partly Cloudy
5:50 AM 46.4 °F - 42.8 °F 87% 30.18 in - Variable 2.3 mph - N/A   Clear
6:50 AM 50.0 °F - 41.0 °F 71% 30.18 in - Variable 1.2 mph - N/A   Clear
7:50 AM 51.8 °F - 37.4 °F 58% 30.18 in - North - - N/A   Clear
8:50 AM 57.2 °F - 41.0 °F 55% 30.18 in - North - - N/A   Partly Cloudy
9:00 AM 57 °F - 41 °F 44%  in 6 mi WSW 4.6 mph - -   Scattered Clouds
9:50 AM 60.8 °F - 44.6 °F 55% 30.18 in - North - - N/A   Partly Cloudy
10:50 AM 64.4 °F - 44.6 °F 49% 30.18 in - North - - N/A   Partly Cloudy
11:50 AM 66.2 °F - 41.0 °F 40% 30.18 in - North - - N/A   Partly Cloudy
12:50 PM 66.2 °F - 39.2 °F 37% 30.15 in 6.2 mi Variable 10.4 mph - N/A   Scattered Clouds
1:50 PM 69.8 °F - 33.8 °F 27% 30.15 in - North - - N/A   Scattered Clouds
2:50 PM 71.6 °F - 35.6 °F 27% 30.15 in 6.2 mi Variable 1.2 mph 18.4 mph N/A   Scattered Clouds
3:00 PM 71 °F - 35 °F 16%  in 6 mi WSW 1.2 mph - -   Partly Cloudy
3:50 PM 68.0 °F - 37.4 °F 33% 30.15 in - North - - N/A   Scattered Clouds
4:50 PM 68.0 °F - 50.0 °F 52% 30.18 in - North - - N/A   Scattered Clouds
5:50 PM 71.6 °F - 28.4 °F 20% 30.12 in 6.2 mi Variable 2.3 mph 13.8 mph N/A   Scattered Clouds
6:50 PM 62.6 °F - 46.4 °F 55% 30.18 in 6.2 mi ESE 6.9 mph - N/A   Scattered Clouds
7:50 PM 57.2 °F - 44.6 °F 63% 30.18 in 6.2 mi ESE 8.1 mph - N/A   Partly Cloudy
8:50 PM 55.4 °F - 42.8 °F 63% 30.21 in 6.2 mi Variable 2.3 mph 13.8 mph N/A   Partly Cloudy
9:00 PM 55 °F - 43 °F 54%  in 6 mi WNW 2.3 mph - -   Scattered Clouds
9:50 PM 53.6 °F - 42.8 °F 67% 30.24 in 6.2 mi Calm Calm - N/A   Partly Cloudy
10:50 PM 51.8 °F - 44.6 °F 76% 30.24 in - Calm Calm - N/A   Clear
11:50 PM 50.0 °F - 42.8 °F 76% 30.24 in - Calm Calm - N/A   Clear